Hawarden, United Kingdom

12:38 PM GMT on January 18, 2017 (GMT +0000)
Hawarden

Weather History for EGNR - September, 2012

Change the Weather History Date:

Saturday, September 29, 2012

  Actual Average (EGGP) Record (EGGP)
Temperature  
Mean Temperature 52 °F -  
Max Temperature 58 °F 55 °F 77 °F (2011)
Min Temperature 47 °F 45 °F 46 °F (2003)
Degree Days  
Heating Degree Days 12    
Growing Degree Days 2 (Base 50)    
Moisture  
Dew Point 44 °F    
Average Humidity 68    
Maximum Humidity 82    
Minimum Humidity 43    
Precipitation  
Precipitation 0.00 in - - ()
Sea Level Pressure  
Sea Level Pressure 30.04 in    
Wind  
Wind Speed 10 mph ()    
Max Wind Speed 16 mph    
Max Gust Speed 30 mph    
Visibility 8.4 miles    
Events Rain    
Averages and records for this station are not official NWS values.
T = Trace of Precipitation, MM = Missing Value Source: Averaged Metar Reports

Daily Weather History Graph

Daily Weather History Graph

Search for Another Location

Airport or City:

Trip Planner

Search our weather history database for the weather conditions in past years. The results will help you decide how hot, cold, wet, or windy it might be!

Date:

Astronomy

Sep. 29, 2012 Rise Set
Actual Time 7:10 AM BST 6:52 PM BST
Civil Twilight 6:35 AM BST 7:27 PM BST
Nautical Twilight 5:55 AM BST 8:07 PM BST
Astronomical Twilight 5:13 AM BST 8:49 PM BST
Moon 6:13 PM BST (9/29) 6:28 AM BST (9/29)
Length of Visible Light 12h 51m
Length of Day
11h 42m
Full, 100% of the Moon is Illuminated
Sep 29
Full
Sep 30
Full
Oct 8
Last Quarter
Oct 15
New
Oct 22
First Quarter

Hourly Weather History & Observations

Time (BST) Temp. Dew Point Humidity Pressure Visibility Wind Dir Wind Speed Gust Speed Precip Events Conditions
12:50 AM 49 °F 41 °F 67% 29.90 in 25 mi SW 8.1 mph - -   Scattered Clouds
3:50 AM 48 °F 41 °F 69% 29.93 in 14 mi WSW 8.1 mph - -   Scattered Clouds
6:50 AM 48 °F 40 °F 66% 29.97 in 12 mi WSW 8.1 mph - -  
8:20 AM 50.0 °F 44.6 °F 82% 30.01 in 6.2 mi West 12.7 mph 25.3 mph N/A   Partly Cloudy
8:50 AM 51.8 °F 44.6 °F 76% 30.01 in 6.2 mi West 11.5 mph - N/A   Scattered Clouds
9:20 AM 51.8 °F 46.4 °F 82% 30.01 in - WNW 10.4 mph - N/A   Scattered Clouds
9:50 AM 53.6 °F 46.4 °F 77% 30.04 in 6.2 mi WNW 12.7 mph - N/A   Scattered Clouds
10:20 AM 53.6 °F 46.4 °F 77% 30.04 in 6.2 mi WNW 13.8 mph 26.5 mph N/A   Scattered Clouds
10:50 AM 55.4 °F 46.4 °F 72% 30.04 in 6.2 mi WNW 13.8 mph - N/A   Scattered Clouds
11:20 AM 55.4 °F 46.4 °F 72% 30.04 in 6.2 mi NW 15.0 mph 26.5 mph N/A   Scattered Clouds
11:50 AM 55.4 °F 46.4 °F 72% 30.04 in 6.2 mi NW 16.1 mph 29.9 mph N/A   Scattered Clouds
12:20 PM 57.2 °F 46.4 °F 67% 30.06 in 6.2 mi WNW 11.5 mph - N/A   Scattered Clouds
12:50 PM 57 °F 43 °F 49% 30.07 in 11 mi WNW 12.7 mph - - Rain Rain
12:50 PM 57.2 °F 46.4 °F 67% 30.06 in 6.2 mi WNW 13.8 mph - N/A   Scattered Clouds
1:20 PM 55.4 °F 44.6 °F 67% 30.06 in 6.2 mi WNW 12.7 mph - N/A   Scattered Clouds
1:50 PM 59.0 °F 46.4 °F 63% 30.06 in 6.2 mi WNW 13.8 mph - N/A   Scattered Clouds
2:20 PM 59.0 °F 46.4 °F 63% 30.06 in 6.2 mi NW 13.8 mph - N/A   Scattered Clouds
2:50 PM 57.2 °F 44.6 °F 63% 30.06 in 6.2 mi WNW 11.5 mph - N/A   Scattered Clouds
3:50 PM 58 °F 42 °F 43% 30.09 in 16 mi WNW 10.4 mph - -   Partly Cloudy
3:50 PM 57.2 °F 44.6 °F 63% 30.06 in 6.2 mi WNW 9.2 mph - N/A   Scattered Clouds
6:50 PM 51 °F 42 °F 62% 30.10 in 12 mi WSW 5.8 mph - -  
9:50 PM 48 °F 41 °F 70% 30.09 in 16 mi SSW 6.9 mph - -